User: anonymous   Login
Location: Unspecified
(0.0000°N, 0.0000°E)
Time: 03:01:32
(UTC+00:00)
Language:

BEIDOU IGSO 6 - Orbit

View from above orbital plane
View from above orbital plane
View from above satellite
View from above satellite

Ground track
Ground track

The orbit is defined by the following mean orbital elements,

1 41434U          26144.67539705 +.00000000 +00000-0 +00000-0 0 00008
2 41434  60.1943  38.2721 0057467 232.2820 308.9754  1.00263774    08
Epoch (UTC): 24 May 2026 16:12:34
Eccentricity: 0.0057467
inclination: 60.1943°
perigee height: 35547 km
apogee height: 36031 km
right ascension of ascending node: 38.2721°
argument of perigee: 232.2820°
revolutions per day: 1.00263774
mean anomaly at epoch: 308.9754°

The dashed part of the orbit path shows where the satellite is in the earth's shadow,  

DLR